GFSSW_con_lsi_132.txt.gz
Lid_Strength_Index
1 0 1 -0 -1 -1 -1 -1 -1 -1 1 2 1 2 2 2 2 4 5 2 4 1 4 9 8 9 9 10 10 11 15 17 16 15 12 11 11 11 9 9 8 6 6 5 3
1 1 1 1 0 -1 -1 -1 -1 -1 -0 1 1 2 2 2 6 8 3 -0 -0 1 8 9 9 10 11 11 11 12 16 15 15 14 12 11 11 10 10 8 8 8 6 3 2
1 1 1 1 0 -1 -1 -1 -1 -0 0 0 1 2 2 3 10 10 2 0 -0 3 8 9 9 10 12 11 12 13 14 14 14 14 12 11 12 10 10 10 8 7 6 4 4
1 1 1 1 1 0 -1 -1 -1 -0 -0 1 1 2 2 6 11 9 2 0 -1 5 7 9 10 11 13 13 12 14 13 14 14 14 13 11 11 11 10 10 9 5 4 4 4
1 0 1 1 1 1 -1 -1 -1 -0 -0 -0 1 1 5 10 10 7 0 -0 3 7 8 10 11 12 13 13 13 14 14 13 14 14 14 11 11 12 10 10 7 4 4 5 4
0 1 1 1 1 1 -0 -1 -1 -0 -0 -0 0 1 8 12 7 4 3 4 6 9 10 9 10 9 10 12 12 14 14 15 14 15 15 13 12 12 11 8 6 5 5 5 4
-0 1 1 1 2 1 1 -1 -1 -0 -0 -0 0 5 9 9 6 3 4 6 7 9 11 9 8 9 9 10 8 11 15 15 15 15 15 14 14 11 12 8 7 6 6 5 5
-1 1 0 1 1 1 1 0 -0 -0 -0 -0 1 6 10 6 4 5 6 7 8 9 9 9 9 10 9 11 13 15 16 17 16 14 15 15 15 11 11 8 7 7 6 6 5
-1 0 0 1 2 1 0 -0 -0 -1 -0 0 5 8 10 4 6 5 6 8 8 9 9 7 9 13 12 15 17 17 19 18 16 15 15 15 14 13 12 9 9 7 7 6 6
-1 0 1 0 1 1 0 -0 0 -0 1 3 4 9 8 10 7 7 7 6 9 9 10 11 13 15 16 17 20 19 19 19 18 16 16 16 13 12 13 12 11 10 7 6 6
-1 2 1 0 1 1 1 2 5 6 5 9 10 11 10 8 6 9 8 9 10 11 14 14 15 17 16 15 15 16 17 19 18 16 16 16 15 13 13 14 13 13 12 9 6
-1 -0 1 0 1 1 1 5 4 5 10 9 8 8 8 7 10 8 7 11 12 15 14 15 17 14 13 14 15 17 18 19 18 16 16 17 16 13 13 13 12 12 13 12 10
1 1 2 0 1 2 3 4 4 4 10 11 9 9 8 8 11 10 9 11 12 14 15 15 14 12 13 15 16 18 17 19 18 17 17 18 18 17 14 13 12 12 12 12 11
1 1 2 1 3 2 4 4 4 5 13 14 12 9 8 8 10 8 8 10 13 15 14 14 13 13 15 16 16 19 16 17 16 18 20 18 21 19 17 14 14 12 12 11 11
1 1 2 1 3 4 3 4 4 8 20 12 12 7 8 9 10 9 8 10 14 14 14 15 14 14 15 15 15 16 15 16 18 19 20 21 21 19 19 17 14 12 11 11 10
1 1 3 1 2 2 3 4 6 15 20 14 11 12 11 11 11 10 10 10 11 13 14 13 12 13 13 14 14 15 16 17 19 20 22 20 20 21 19 16 14 13 13 13 13
1 2 3 1 5 1 4 7 15 18 13 15 14 12 13 14 13 11 12 14 14 17 17 16 15 14 13 15 15 16 17 21 22 23 22 21 22 18 16 16 15 14 14 13 14
2 3 2 1 1 3 6 11 18 15 15 13 13 12 14 13 13 12 13 14 14 15 17 17 19 15 14 15 16 17 17 21 24 24 22 20 22 19 15 15 14 14 14 13 13
2 4 3 1 2 4 8 15 15 15 14 14 13 15 16 13 13 13 14 14 13 15 17 18 18 15 14 14 13 17 18 16 21 28 23 21 20 17 14 15 15 15 14 13 13
6 4 4 2 3 5 11 13 16 12 12 12 16 14 17 16 16 15 15 13 14 14 13 15 17 14 14 13 14 15 13 17 19 24 25 23 21 19 17 15 15 15 14 13 13
7 7 3 3 4 8 14 14 14 11 11 13 15 15 15 16 16 16 16 15 13 14 13 14 15 16 14 15 16 16 17 17 17 19 23 24 21 17 15 15 15 14 14 13 13
7 12 3 4 11 11 13 13 11 12 11 13 12 14 14 14 15 15 16 15 12 13 14 14 14 17 16 14 13 15 15 15 17 21 21 21 20 17 16 15 15 14 14 13 12
13 13 4 5 14 14 11 13 12 12 12 13 14 13 12 13 15 14 15 11 11 12 13 12 15 19 16 14 14 16 16 15 17 18 20 22 20 15 15 15 14 14 15 13 13
14 14 11 8 10 11 13 15 14 10 13 12 13 12 12 13 13 14 14 11 10 10 8 9 13 15 18 17 15 16 16 15 15 18 19 19 19 15 15 14 14 13 14 14 13
14 14 12 15 13 11 12 14 14 14 13 12 13 13 13 15 14 15 13 12 11 9 10 10 14 15 16 15 14 15 15 15 15 15 17 16 17 16 15 14 14 14 13 13 13
14 13 12 13 11 12 12 14 14 14 13 14 14 13 12 15 14 16 14 14 14 13 12 13 19 16 19 15 15 16 14 14 14 14 14 15 17 15 14 15 14 13 13 12 12
12 10 10 12 13 13 13 14 13 12 12 12 12 13 14 13 11 10 9 10 11 11 12 13 17 19 22 16 16 17 16 15 15 14 14 16 15 15 15 15 14 13 13 12 12

GFSSW_con_lsi_138.txt.gz
Lid_Strength_Index
-1 -1 -2 -1 -1 -1 -1 -0 1 -1 -1 -1 0 1 3 1 2 3 4 3 4 1 3 4 5 7 7 8 8 8 10 10 11 11 8 6 6 6 5 5 4 4 4 3 2
-1 -1 -1 -2 -2 -1 -1 -1 0 0 -1 -1 -0 1 2 3 5 5 2 0 1 1 6 6 7 8 9 9 8 10 10 10 10 10 10 7 6 6 6 5 5 5 3 2 2
-1 -1 -1 -2 -1 -1 -1 -1 -1 1 -1 -1 -0 2 2 5 9 6 1 -0 0 2 5 5 5 7 9 9 11 11 11 10 10 10 11 10 7 6 6 7 5 5 4 4 3
-1 -1 -1 -1 -1 -1 -1 -1 -0 1 0 -1 -0 2 3 5 11 5 1 -0 0 4 6 6 6 7 9 10 9 11 11 10 10 10 10 11 10 8 6 5 5 3 3 4 4
-1 -1 -1 -1 -1 -1 -1 -1 -1 1 1 -1 -1 2 4 8 8 3 2 1 1 6 6 7 7 7 9 8 10 10 10 10 11 11 10 11 11 10 7 5 5 3 3 4 4
-1 -1 -1 -1 -1 -1 -1 -1 -1 -0 1 -0 -1 1 5 9 4 4 5 2 3 6 6 7 7 7 8 9 8 9 10 11 12 11 11 11 11 11 9 5 4 4 4 4 4
-1 -1 -1 -1 -1 -1 -1 -1 1 1 1 0 -1 1 5 7 5 5 4 2 4 5 7 5 5 6 7 10 8 11 11 12 12 13 12 11 13 12 10 7 4 4 4 4 3
-1 -1 -1 -1 -1 -1 -1 1 1 1 1 1 -1 3 7 6 4 5 6 8 5 4 5 5 5 6 7 7 8 11 13 14 13 13 13 12 13 10 10 9 7 5 4 4 4
-1 -1 -1 -1 -1 -1 -1 1 1 1 1 1 2 4 8 5 6 5 7 7 7 7 6 7 6 9 7 9 11 12 14 13 13 12 12 12 12 10 11 10 10 5 5 4 4
-1 -1 -1 -1 -1 -1 -1 0 1 1 2 1 2 7 7 9 7 6 7 8 8 9 10 11 12 12 13 11 17 14 13 13 12 12 13 13 12 11 12 11 10 8 5 5 4
-1 -1 -1 -1 -1 -0 1 3 5 7 5 7 7 6 8 6 6 7 7 9 10 9 14 13 13 14 12 10 9 10 11 11 12 12 13 13 12 11 11 12 11 9 6 5 4
-1 -1 -1 -1 -1 0 1 6 5 4 9 5 6 5 7 5 9 9 7 11 10 13 13 13 13 10 11 11 12 11 11 12 13 14 13 13 13 11 11 11 10 9 7 6 4
-1 -1 -1 -1 -1 1 4 5 1 2 9 9 6 8 9 6 9 9 8 9 11 14 13 13 12 12 12 13 13 13 12 14 12 13 13 14 14 13 11 11 10 10 9 7 6
-1 -1 -1 -1 3 3 5 4 2 3 13 13 9 9 9 6 9 6 6 8 11 13 12 12 12 13 13 14 12 15 12 12 13 13 15 14 15 12 12 12 12 11 10 9 7
-1 -1 -1 -0 3 5 5 3 2 5 20 12 10 6 8 8 10 10 7 8 12 13 12 13 13 13 13 12 11 13 12 12 13 14 15 15 16 13 14 13 12 10 10 9 8
-1 -1 -1 1 2 3 3 2 4 14 20 14 11 12 11 9 9 9 9 8 8 11 10 12 11 11 11 12 11 12 13 14 14 14 18 14 15 14 13 13 11 9 9 8 8
-1 -1 -0 1 5 2 3 5 14 18 13 16 15 12 11 11 12 11 11 12 13 14 14 13 13 12 11 13 13 12 13 17 18 18 18 17 17 14 11 11 11 10 9 9 8
-1 -0 1 1 2 3 5 10 18 14 14 12 12 12 13 12 12 12 12 13 11 11 13 15 17 14 12 12 14 13 13 16 20 20 17 18 18 14 11 10 10 10 10 10 10
-0 1 3 2 1 3 8 15 15 14 12 13 12 14 14 12 13 13 13 13 12 11 13 15 17 14 13 13 11 14 15 12 17 21 18 16 15 13 11 11 12 11 11 10 10
2 4 5 2 2 5 11 13 12 9 10 11 15 12 16 13 14 14 14 12 12 12 10 13 17 14 14 12 12 13 12 16 16 19 20 18 18 15 13 12 12 12 11 10 10
4 8 3 2 2 7 13 13 11 9 9 10 12 13 13 13 12 14 14 12 11 13 12 12 13 16 14 15 15 14 15 15 14 15 18 19 16 12 13 12 12 11 11 10 10
5 11 2 1 9 10 12 11 9 10 8 10 9 9 12 12 12 13 14 12 10 12 13 12 14 17 16 14 13 13 13 13 16 19 18 19 17 13 13 12 12 11 11 11 10
9 9 2 3 13 12 10 10 10 10 10 10 10 9 10 12 15 12 12 10 10 12 13 12 15 18 17 15 14 14 14 13 13 14 17 16 15 13 13 12 11 11 10 11 10
9 11 8 6 7 10 11 12 12 9 10 10 10 9 10 12 12 13 13 12 10 11 10 10 14 15 18 16 15 16 15 13 13 15 16 16 14 13 13 12 11 10 10 10 9
9 11 9 12 11 9 9 11 12 12 11 10 11 10 11 13 13 14 13 13 11 10 10 11 14 15 15 14 13 13 14 14 14 14 15 14 14 12 11 11 10 9 9 10 9
9 11 10 9 9 10 10 12 12 11 11 12 11 11 10 12 12 14 13 13 13 11 12 12 14 15 16 15 13 14 13 13 13 13 13 13 14 12 9 9 11 10 10 9 9
7 8 9 9 10 11 11 11 11 10 10 10 10 11 11 10 9 11 10 10 11 12 12 13 15 14 16 16 14 15 15 13 13 12 12 15 12 11 11 11 10 9 10 10 9

GFSSW_con_lsi_141.txt.gz
Lid_Strength_Index
-0 -0 -1 -2 -1 -1 -1 -1 -1 -1 -0 0 -1 -1 1 1 3 4 5 4 4 1 2 5 6 7 7 7 7 7 8 10 9 9 8 5 5 4 3 4 4 3 4 3 2
-0 -0 -1 -1 -1 -1 -1 -1 -1 -1 -1 -1 -0 -1 -0 1 4 6 3 0 1 1 7 6 7 7 10 7 8 8 9 9 7 7 7 7 5 5 5 5 5 5 3 2 2
-1 -1 -1 -1 -1 -1 -1 -1 -1 -1 -0 -1 -1 -1 -1 1 7 7 2 1 -1 2 5 4 4 6 7 10 8 8 9 6 9 9 9 8 7 4 5 6 5 5 4 3 3
-1 -1 -1 -1 -1 -1 -1 -1 -1 -1 -1 -1 -1 -0 0 2 11 5 4 2 0 3 6 5 5 7 7 8 10 11 8 7 8 9 10 10 8 7 5 4 4 3 3 3 4
-1 -1 -1 -1 -1 -1 -1 -1 -1 -1 -1 -1 -1 -0 3 5 6 3 5 4 2 3 7 6 6 6 7 7 8 9 8 8 9 9 9 9 10 9 7 4 4 3 3 4 4
-1 -1 -1 -1 -1 -1 -1 -1 -1 -1 -1 -1 -0 -0 3 9 1 2 5 6 4 4 7 6 5 4 6 7 9 8 7 9 10 10 10 10 10 11 9 6 4 3 4 3 3
-1 -1 -1 -1 -1 -1 -1 -1 -1 -1 -1 -1 -0 0 4 6 -0 2 5 6 6 3 8 4 4 5 5 7 6 7 10 10 10 10 10 10 11 12 9 8 7 4 4 3 3
-1 -1 -1 -1 -1 -1 -1 -1 -1 -1 -1 -1 -1 2 7 2 -0 3 4 6 5 4 5 5 4 5 6 6 8 9 9 12 8 10 10 10 11 9 8 9 9 7 4 4 3
-0 -1 -1 -1 -1 -1 -1 -1 -1 -1 -1 -1 1 4 8 1 4 2 4 7 6 7 7 6 5 7 7 8 10 9 13 12 10 8 9 11 10 8 8 9 9 8 7 4 4
-1 -1 -1 -1 -1 -1 -1 -1 -1 -1 -0 -0 1 6 6 6 4 4 4 5 8 9 10 9 11 10 9 10 16 13 12 11 11 11 10 11 11 8 10 9 9 8 7 6 4
-1 -1 -1 -1 -1 -1 -0 1 4 5 4 7 6 6 6 4 3 4 5 7 8 9 14 12 13 14 11 9 9 9 11 11 9 10 11 12 11 10 9 10 10 9 8 7 5
-1 -1 -1 -1 -1 -1 -0 4 4 3 8 4 5 6 4 4 7 7 4 8 11 13 12 15 14 10 8 8 9 10 11 12 9 9 12 10 11 10 10 10 10 9 9 8 7
-1 -1 -1 -1 -1 0 2 3 -0 2 8 7 6 8 6 4 7 9 5 9 11 13 14 16 11 9 9 10 10 10 12 11 11 12 12 13 13 12 10 9 9 9 8 8 7
-1 -1 -1 -1 1 1 3 0 -0 2 12 11 9 7 6 5 9 6 5 9 11 12 14 14 9 11 11 11 10 12 8 9 13 13 14 12 14 10 10 11 10 10 9 9 8
-1 -1 -1 -1 1 3 1 -0 1 5 20 9 9 5 6 8 9 9 6 9 12 13 14 14 14 13 13 11 9 10 11 12 12 13 13 14 15 11 9 12 11 10 9 8 8
-1 -1 -1 0 0 0 -0 -0 4 13 20 13 9 10 10 10 9 8 9 8 8 12 12 14 12 12 10 10 10 11 12 12 12 13 17 14 14 13 11 11 10 9 9 8 7
-0 -1 -0 -0 3 -1 -0 4 14 18 11 14 14 11 11 13 12 10 12 13 13 16 16 15 14 12 10 13 12 12 13 17 17 17 18 15 14 13 10 9 9 8 8 7 6
-1 -0 0 0 -1 -0 2 10 18 14 14 11 12 11 13 12 12 12 13 15 11 11 14 16 18 13 11 11 13 13 13 15 19 19 17 17 18 14 10 9 8 8 8 8 9
-0 1 2 0 -1 0 7 15 15 13 11 12 12 14 14 13 13 13 13 14 11 10 14 14 15 12 11 11 11 13 14 11 16 19 17 16 14 12 10 10 10 10 10 9 9
2 4 3 -0 -1 3 10 13 12 9 9 10 15 13 16 14 14 14 14 12 12 10 9 11 17 13 13 11 11 11 10 15 14 19 20 16 16 15 12 11 10 11 10 9 8
3 7 2 -0 1 6 13 12 10 8 8 11 13 14 13 14 13 13 14 11 10 10 9 11 14 16 14 14 13 13 14 13 13 14 17 18 16 12 12 11 11 11 10 10 9
5 9 1 1 9 8 11 10 8 9 8 9 9 10 12 12 13 13 13 11 9 10 12 10 13 17 16 13 13 12 13 13 16 17 16 17 16 12 11 12 11 11 10 10 9
9 7 2 3 12 11 9 10 8 10 10 10 11 9 9 11 13 11 11 8 8 11 12 11 14 17 17 15 14 15 13 12 12 13 17 17 15 12 12 12 10 10 10 10 9
7 10 7 6 6 9 10 11 11 9 10 9 10 9 10 11 10 11 11 9 9 10 9 9 12 14 17 16 14 16 14 13 13 16 16 16 14 12 12 11 10 10 9 9 9
6 9 8 11 10 10 9 9 11 12 10 10 11 10 11 13 12 12 11 10 10 10 10 10 14 13 13 12 13 15 14 14 15 14 15 14 14 12 10 10 10 9 9 9 9
8 8 8 9 8 10 9 11 11 10 11 12 13 10 9 11 11 13 12 12 12 11 11 10 14 14 16 14 13 15 14 14 14 13 13 13 13 11 9 9 10 9 9 9 9
4 5 6 9 10 11 11 10 10 9 10 9 10 9 10 9 8 8 9 10 10 11 12 12 13 15 17 15 14 16 15 14 14 12 13 15 12 10 11 10 10 9 9 9 9

GFSSW_con_lsi_147.txt.gz
Lid_Strength_Index
-1 -1 -0 -1 -1 -1 -1 -1 -1 -1 -1 -1 -0 -1 -0 0 0 2 4 1 3 -1 2 6 6 7 7 9 8 7 12 14 12 11 11 11 11 10 7 6 6 5 5 4 2
-1 -1 -1 -1 -1 -1 -1 -2 -2 -2 -1 -1 -1 -2 -0 0 3 4 -0 -1 -1 -0 5 7 7 7 9 9 9 10 11 12 9 10 11 10 11 10 9 7 7 7 4 3 2
-1 -1 -1 -1 -1 -1 -1 -1 -1 -2 -1 -1 -1 -1 -1 -0 5 5 -1 -1 -1 -0 3 5 6 7 10 9 9 10 11 8 8 11 11 10 10 10 10 10 7 7 6 4 4
-1 -1 -1 -1 -1 -0 -1 -1 -1 -1 -2 -1 -1 -1 -1 1 11 3 -1 -1 -1 -0 2 5 6 8 10 10 9 11 8 8 7 10 11 11 10 10 10 9 6 5 4 4 4
-1 -1 -1 -1 -1 -1 -1 -1 -1 -1 -2 -1 -1 -1 1 5 5 1 -1 -1 1 2 3 5 8 8 10 9 8 9 9 7 7 10 11 11 12 11 11 9 8 4 4 5 4
-1 -1 -1 -1 -1 -1 -1 -0 -1 -1 -1 -2 -1 -1 3 8 0 -0 0 0 1 2 3 5 7 7 9 8 9 8 7 7 9 11 11 12 13 12 11 10 9 5 5 5 4
-1 -1 -1 -1 -1 -1 -1 -1 -1 -1 -1 -1 -1 0 4 5 1 1 0 1 1 2 4 3 4 7 9 10 6 8 10 8 8 12 12 12 14 13 11 11 10 6 5 5 4
-1 -1 -1 -1 -1 -1 -1 -1 -1 -1 -1 -1 -1 2 6 1 0 1 2 3 1 1 2 2 3 5 7 7 9 10 10 13 12 13 13 13 14 12 11 12 12 11 6 5 4
-1 -1 -1 -1 -1 -1 -1 -1 -1 -1 -1 -1 1 3 7 -0 3 1 1 3 2 2 2 2 4 6 7 11 14 11 14 15 14 13 13 14 15 12 11 12 12 12 10 6 5
-1 -1 -1 -1 -1 -1 -1 -1 -1 -0 -0 -0 1 6 4 6 3 2 1 1 4 4 5 6 8 10 10 12 17 15 14 13 13 13 14 15 15 12 11 12 11 12 10 8 6
-1 -1 -1 -1 -1 -1 0 3 5 7 4 7 6 7 5 3 1 3 2 3 4 6 10 8 11 14 12 12 13 13 13 13 12 10 14 14 14 13 11 12 13 12 12 10 7
-1 -1 -1 -1 -1 -1 1 6 6 5 9 5 5 5 4 3 7 5 2 7 8 11 9 11 14 10 10 10 11 13 13 13 11 9 12 13 13 11 12 11 11 12 12 11 8
-0 -1 -1 -1 -1 0 2 4 2 3 9 7 6 6 5 4 7 7 4 6 9 11 11 13 11 8 10 12 12 12 14 13 12 13 14 15 15 13 11 10 11 11 10 11 9
-0 -1 -1 -1 1 2 3 1 1 2 15 13 9 6 6 5 8 4 3 6 9 11 11 11 8 10 11 12 11 15 11 12 12 14 17 14 18 14 11 11 10 11 11 11 11
1 -0 -1 -1 3 4 2 0 2 5 25 12 9 4 5 7 8 7 3 6 10 11 10 12 11 11 13 12 10 12 10 11 12 14 17 17 18 16 12 12 11 11 11 11 11
1 -0 -1 2 2 2 0 1 4 14 22 14 9 9 9 8 8 7 7 5 6 10 9 10 9 9 10 9 9 9 11 13 14 15 17 17 16 18 15 12 11 10 12 11 12
2 -0 1 2 5 1 1 4 13 18 14 15 12 10 10 11 10 9 10 11 13 15 15 13 12 9 9 12 10 11 15 19 20 20 20 18 19 15 13 13 11 11 12 12 11
1 0 1 2 1 1 3 9 19 18 16 9 10 10 12 10 11 10 11 13 10 11 14 16 17 13 10 11 13 13 15 18 22 22 22 21 20 16 12 10 12 12 12 12 12
1 2 3 2 1 1 7 15 17 17 11 12 11 13 13 11 11 12 12 12 11 10 14 16 15 11 11 11 11 15 16 12 19 23 22 21 19 15 13 13 13 13 13 13 13
3 3 4 1 1 4 10 14 15 9 9 10 15 13 18 13 13 13 13 10 11 9 8 12 16 12 11 10 10 13 12 17 18 24 25 22 21 18 15 14 14 14 13 13 13
3 8 4 1 2 7 13 14 13 8 8 11 12 13 13 13 13 13 13 11 9 10 8 9 12 15 13 14 15 15 16 16 16 19 23 24 21 16 15 14 14 14 13 13 13
7 11 3 2 10 9 14 13 10 10 8 10 9 11 12 12 13 13 13 11 8 8 12 10 14 17 15 13 12 13 15 15 19 21 21 21 20 16 15 15 14 14 14 13 13
11 9 4 4 13 13 12 12 11 11 11 10 11 10 9 11 14 12 12 8 8 9 10 10 14 19 17 16 15 15 14 14 14 18 21 21 20 16 15 16 15 14 14 13 13
9 11 8 7 11 12 14 14 14 10 11 9 10 9 11 12 10 13 12 9 8 8 8 9 14 14 18 17 16 17 15 14 15 20 21 19 18 17 16 15 14 14 14 13 13
10 12 10 12 14 12 12 13 14 14 11 10 10 10 11 13 12 13 11 10 9 8 8 10 15 14 15 13 14 15 15 15 16 16 18 17 17 16 15 15 14 14 13 13 12
11 11 11 11 11 13 12 15 14 13 12 13 12 10 10 12 12 13 11 11 12 10 11 10 15 16 17 15 14 16 15 14 14 14 15 15 15 13 13 14 14 13 13 12 12
8 8 10 10 13 13 13 13 13 11 11 9 10 10 10 11 9 9 9 10 9 11 12 12 15 15 17 17 16 19 16 15 15 13 14 17 14 14 14 14 13 13 12 13 13